,

(GMT )
Farnborough

Weather History for EGLF - October, 2012

Change the Weather History Date:

Sunday, October 7, 2012

  Actual Average Record
Temperature  
Mean Temperature 45 °F -  
Max Temperature 56 °F - - ()
Min Temperature 34 °F - - ()
Degree Days  
Heating Degree Days 20    
Moisture  
Dew Point 44 °F    
Average Humidity 90    
Maximum Humidity 100    
Minimum Humidity 68    
Precipitation  
Precipitation 0.01 in - - ()
Sea Level Pressure  
Sea Level Pressure 30.18 in    
Wind  
Wind Speed 3 mph ()    
Max Wind Speed 7 mph    
Max Gust Speed -    
Visibility 4.3 miles    
Events Fog    
T = Trace of Precipitation, MM = Missing Value Source: Averaged Metar Reports

Daily Weather History Graph

Daily Weather History Graph

Search for Another Location

Airport or City:

Trip Planner

Search our weather history database for the weather conditions in past years. The results will help you decide how hot, cold, wet, or windy it might be!

Date:

Astronomy

Oct. 07, 2012 Rise Set
Actual Time 7:13 AM BST 6:26 PM BST
Civil Twilight 6:40 AM BST 6:59 PM BST
Nautical Twilight 6:02 AM BST 7:38 PM BST
Astronomical Twilight 5:23 AM BST 8:17 PM BST
Moon 10:56 PM BST (10/7) 2:10 PM BST (10/7)
Length of Visible Light 12h 19m
Length of Day
11h 12m
Waning Gibbous, 58% of the Moon is Illuminated
Oct 7
Waning Gibbous
Oct 8
Last Quarter
Oct 15
New
Oct 22
First Quarter
Oct 29
Full

Hourly Weather History & Observations

Time (BST) Temp. Windchill Dew Point Humidity Pressure Visibility Wind Dir Wind Speed Gust Speed Precip Events Conditions
12:50 AM 38 °F - 37 °F 93% 30.07 in 7 mi WNW 1.2 mph - -  
3:50 AM 37 °F - 37 °F 98% 30.09 in 7 mi West 2.3 mph - -  
6:50 AM 35 °F - 34 °F 95% 30.15 in 8 mi North 1.2 mph - -  
7:50 AM 35.6 °F - 35.6 °F 100% 30.15 in 5.0 mi North 2.3 mph - N/A   Unknown
8:20 AM 37.4 °F - 35.6 °F 93% 30.15 in 0.5 mi Variable 2.3 mph - N/A Fog Fog
8:50 AM 39.2 °F 35.9 °F 39.2 °F 100% 30.15 in 0.1 mi NW 4.6 mph - N/A Fog Fog
9:20 AM 41.0 °F 38.0 °F 41.0 °F 100% 30.18 in 0.1 mi WNW 4.6 mph - N/A Fog Fog
9:50 AM 42 °F - 42 °F 98% 30.20 in 0 mi NNW 3.5 mph - -  
9:50 AM 42.8 °F 41.1 °F 41.0 °F 93% 30.18 in 0.1 mi Variable 3.5 mph - N/A Fog Fog
10:20 AM 42.8 °F 41.1 °F 42.8 °F 100% 30.21 in 0.2 mi Variable 3.5 mph - N/A Fog Fog
10:50 AM 44.6 °F 43.1 °F 44.6 °F 100% 30.21 in 0.2 mi Variable 3.5 mph - N/A Fog Fog
11:20 AM 44.6 °F 43.1 °F 44.6 °F 100% 30.21 in 0.4 mi Variable 3.5 mph - N/A Fog Fog
11:50 AM 46.4 °F 45.2 °F 44.6 °F 93% 30.21 in 1.7 mi Variable 3.5 mph - N/A   Mist
12:20 PM 46.4 °F 45.2 °F 46.4 °F 100% 30.21 in - Variable 3.5 mph - N/A   Overcast
12:50 PM 48 °F - 48 °F 98% 30.22 in 4 mi NNW 2.3 mph - -   Overcast
12:50 PM 48.2 °F - 46.4 °F 93% 30.21 in - Variable 1.2 mph - N/A   Overcast
1:20 PM 50.0 °F - 48.2 °F 94% 30.21 in 3.7 mi Variable 2.3 mph - N/A   Mostly Cloudy
1:50 PM 51.8 °F - 48.2 °F 88% 30.21 in 5.6 mi NNW 2.3 mph - N/A   Scattered Clouds
2:20 PM 51.8 °F - 48.2 °F 88% 30.21 in 6.2 mi Variable 3.5 mph - N/A   Scattered Clouds
2:50 PM 53.6 °F - 48.2 °F 82% 30.21 in 6.2 mi Variable 2.3 mph - N/A   Partly Cloudy
3:20 PM 55.4 °F - 48.2 °F 77% 30.21 in 6.2 mi Variable 2.3 mph - N/A   Partly Cloudy
3:50 PM 55 °F - 47 °F 68% 30.21 in 14 mi NNE 3.5 mph - -   Scattered Clouds
3:50 PM 55.4 °F - 48.2 °F 77% 30.21 in 6.2 mi Variable 3.5 mph - N/A   Partly Cloudy
4:20 PM 55.4 °F - 48.2 °F 77% 30.18 in 6.2 mi Variable 3.5 mph - N/A   Partly Cloudy
4:50 PM 55.4 °F - 48.2 °F 77% 30.18 in 6.2 mi North 4.6 mph - N/A   Partly Cloudy
5:20 PM 53.6 °F - 46.4 °F 77% 30.18 in 6.2 mi ENE 5.8 mph - N/A   Partly Cloudy
5:50 PM 53.6 °F - 48.2 °F 82% 30.18 in - ENE 5.8 mph - N/A   Clear
6:20 PM 51.8 °F - 48.2 °F 88% 30.18 in - ENE 5.8 mph - N/A   Clear
6:50 PM 50 °F - 47 °F 85% 30.19 in 8 mi East 5.8 mph - -   Partly Cloudy
6:50 PM 50.0 °F - 46.4 °F 87% 30.18 in - ENE 6.9 mph - N/A   Clear
7:20 PM 48.2 °F - 46.4 °F 93% 30.18 in - East 5.8 mph - N/A   Clear
9:50 PM 46 °F - 45 °F 93% 30.19 in 3 mi WSW 1.2 mph - -   Mostly Cloudy